International Virtual Aviation Organisation

Russian Federation and Kazakhstan MCD

 

Карточка аэропорта UAKK

Внимание!
Информация на этой странице в стадии наполнения.
Если вы не увидели какой-то информации, или заметили неточность - пожалуйста сообщите нам!
Спасибо!
Команда RU-STAFF
Название аэропортаКараганда
Название аэропорта (англ.)Karaganda
Превышение1768 ft. (538.9 m.)
Координаты49°40.302', 73°20.118'
Высота перехода10000
Эшелон переходаby ATC
Коды ответчика0630-0637, 7220-7227
Зона ОрВДНур-Султан РПИ (UACN)
Данные METARUAKK 302200Z 09003MPS CAVOK M11/M13 Q1033 R23/0///70 NOSIG RMK QFE727/0969
Проноз погоды (TAF)UAKK 301701Z 3018/3118 VRB02MPS 3100 BR SCT005 BKN020 TX05/3109Z TNM10/3101Z TEMPO 3020/3103 0400 FZFG VV002 BECMG 3104/3106 9999 NSW SCT030 BKN100
NOTAMshow/hide NOTAM
AWOS   TABLE

Информация о ВПП

ВПП Длина ВПП (м.) Покрытие Курс ВПП Частота ILS
053601Железобетон50109.9
233601Железобетон230111.7

Диспетчерские позиции




Спутниковое изображение